Hoquiam, WA
on Tuesday, January 15, 2013

Tuesday
Previous Day Next Day
Daily Summary
 ActualAverageRecord
Temperature
Mean Temperature °F 43°F  
Max Temperature 42°F 47°F 56°F (1981)
Min Temperature 30°F 38°F 25°F (2012)
Degree Days
Heating Degree Days 29 22  
Month to date heating degree days 341  
Cooling Degree Days 0 0  
Month to date cooling degree days 0  
Year to date cooling degree days 0  
Moisture
Dew Point 33°F   
Average Humidity 95    
Maximum Humidity 100    
Minimum Humidity 70    
Precipitation
Precipitation 0.00 in 0.35 in 2.64 in (1976)
Month to date precipitation 5.27  
Year to date precipitation 5.27  
Wind
Wind Speed 6 mph   
Max Wind Speed 12 mph   
Max Gust Speed mph   
Visibility 6 miles   
Events Fog   

Key: T is trace of precipitation, MM is missing value
Source: NWS Daily Summary
Time(PST)TemperatureDew PointHumidity Pressure Visibility Wind DirectionWind SpeedGust SpeedPrecipitationEvents Conditions
12:38 AM 33.8°F 33.8°F 100% 30.55 in 8.0 miles ENE 5.8 mph - N/A   Overcast
12:53 AM 34.0°F 33.1°F 96% 30.57 in 7.0 miles ENE 8.1 mph - N/A   Overcast
1:53 AM 34.0°F 32.0°F 92% 30.59 in 8.0 miles NE 4.6 mph - N/A   Mostly Cloudy
2:29 AM 33.8°F 32.0°F 93% 30.60 in 8.0 miles NE 5.8 mph - N/A   Scattered Clouds
2:53 AM 33.1°F 32.0°F 96% 30.61 in 8.0 miles NNE 5.8 mph - N/A   Scattered Clouds
3:03 AM 33.8°F 33.8°F 100% 30.60 in 8.0 miles NE 5.8 mph - N/A   Mostly Cloudy
3:53 AM 35.1°F 33.1°F 92% 30.61 in 9.0 miles ENE 5.8 mph - N/A   Overcast
4:53 AM 35.1°F 34.0°F 96% 30.62 in 9.0 miles NE 4.6 mph - N/A   Overcast
5:44 AM 33.8°F 32.0°F 93% 30.61 in 9.0 miles NE 4.6 mph - N/A   Scattered Clouds
5:53 AM 34.0°F 32.0°F 92% 30.62 in 9.0 miles NE 5.8 mph - N/A   Partly Cloudy
6:53 AM 32.0°F 30.9°F 96% 30.64 in 6.0 miles NE 5.8 mph - N/A   Clear
7:53 AM 32.0°F 30.0°F 92% 30.67 in 7.0 miles ENE 3.5 mph - N/A   Clear
8:25 AM 32.0°F 30.2°F 93% 30.66 in 1.2 miles ENE 8.1 mph - N/A   Partly Cloudy
8:29 AM 30.2°F 30.2°F 100% 30.67 in 0.2 miles ENE 8.1 mph - N/A Fog Light Freezing Fog
8:37 AM 30.2°F 30.2°F 100% 30.67 in 0.2 miles ENE 5.8 mph - N/A Fog Light Freezing Fog
8:53 AM 30.9°F 30.9°F 100% 30.68 in 0.2 miles ENE 4.6 mph - N/A Fog Light Freezing Fog
9:17 AM 32.0°F 32.0°F 100% 30.68 in 0.5 miles ENE 4.6 mph - N/A Fog Fog
9:26 AM 32.0°F 32.0°F 100% 30.68 in 1.0 miles ENE 3.5 mph - N/A   Mist
9:42 AM 32.0°F 32.0°F 100% 30.68 in 0.8 miles East 6.9 mph - N/A   Mist
9:48 AM 33.8°F 33.8°F 100% 30.68 in 2.0 miles East 5.8 mph - N/A   Scattered Clouds
9:49 AM 33.1°F 33.1°F 100% 30.69 in 2.5 miles East 5.8 mph - N/A   Scattered Clouds
9:56 AM 33.8°F 33.8°F 100% 30.68 in 3.0 miles East 8.1 mph - N/A   Partly Cloudy
10:08 AM 33.8°F 33.8°F 100% 30.69 in 2.5 miles East 6.9 mph - N/A   Partly Cloudy
10:29 AM 33.8°F 32.0°F 93% 30.69 in 2.0 miles East 8.1 mph - N/A   Scattered Clouds
10:40 AM 33.8°F 33.8°F 100% 30.69 in 2.5 miles East 11.5 mph - N/A   Mostly Cloudy
10:53 AM 34.0°F 33.1°F 96% 30.71 in 1.8 miles East 9.2 mph - N/A   Overcast
11:00 AM 33.8°F 33.8°F 100% 30.70 in 2.0 miles East 9.2 mph - N/A   Overcast
11:13 AM 33.8°F 33.8°F 100% 30.70 in 3.0 miles ENE 9.2 mph - N/A   Mostly Cloudy
11:41 AM 35.6°F 35.6°F 100% 30.69 in 4.0 miles East 9.2 mph - N/A   Scattered Clouds
11:53 AM 36.0°F 35.1°F 97% 30.70 in 3.0 miles East 9.2 mph - N/A   Mostly Cloudy
12:17 PM 35.6°F 35.6°F 100% 30.68 in 2.5 miles East 10.4 mph - N/A   Overcast
12:29 PM 35.6°F 35.6°F 100% 30.68 in 3.0 miles East 10.4 mph - N/A   Overcast
12:53 PM 36.0°F 35.1°F 97% 30.69 in 4.0 miles East 9.2 mph - N/A   Mostly Cloudy
1:11 PM 37.4°F 35.6°F 93% 30.68 in 5.0 miles East 9.2 mph - N/A   Scattered Clouds
1:53 PM 37.9°F 36.0°F 93% 30.69 in 6.0 miles East 9.2 mph - N/A   Clear
2:53 PM 39.9°F 37.0°F 89% 30.69 in 7.0 miles East 8.1 mph - N/A   Clear
3:38 PM 41.0°F 37.4°F 87% 30.68 in 9.0 miles East 8.1 mph - N/A   Mostly Cloudy
3:53 PM 41.0°F 37.9°F 89% 30.69 in 9.0 miles ENE 5.8 mph - N/A   Overcast
4:14 PM 42.8°F 33.8°F 70% 30.68 in 10.0 miles NNE 8.1 mph - N/A   Scattered Clouds
4:53 PM 39.9°F 33.1°F 77% 30.69 in 10.0 miles NNE 5.8 mph - N/A   Clear
5:53 PM 37.9°F 33.1°F 83% 30.69 in 10.0 miles NE 3.5 mph - N/A   Clear
6:53 PM 36.0°F 32.0°F 86% 30.69 in 10.0 miles North 4.6 mph - N/A   Clear
7:53 PM 34.0°F 32.0°F 92% 30.69 in 10.0 miles Calm Calm - N/A   Clear
8:53 PM 30.9°F 30.0°F 96% 30.69 in 9.0 miles NE 3.5 mph - N/A   Clear
9:53 PM 30.2°F 28.4°F 93% 30.67 in 8.0 miles Calm Calm - N/A   Clear
10:53 PM 30.0°F 28.9°F 96% 30.69 in 10.0 miles NE 3.5 mph - N/A   Clear
11:53 PM 30.2°F 30.2°F 100% 30.67 in 9.0 miles Calm Calm - N/A   Clear
Moon Phase
Jan. 15 Jan. 18 Jan. 26 Feb. 03 Feb. 10
Sunrise:07:56 AM (PST) Moon Rise:09:45 AM (PST)1/15
Sunset:04:54 PM (PST) Moon Set:10:12 PM (PST)1/15

Copyright © 2014 The Weather Underground, Inc.